#timestamp,LO_Frequency,Hit,StdDev 
1701867615.8,286047000.9,N
1701867635.7,286046999.7,N
1701867655.5,286047002.7,N
1701867675.4,286047002.4,N
1701867695.2,286047002.0,N
1701867715.0,286047002.7,N
1701867715.9,286047002.7,N
1701867735.8,286047002.5,N
1701867755.6,286047004.4,Y
1701867775.5,286046999.9,P
1701867795.3,286047002.8,P
1701867815.1,286047000.0,N
1701867835.9,286047002.8,N
1701867855.7,286047000.4,N
1701867875.5,286046999.8,N
1701867895.4,286047002.4,N
1701867915.2,286047002.2,N
1701867935.1,286047001.5,N
1701867936.0,286047001.5,N
1701867955.8,286047002.0,N
1701867975.6,286047000.5,N
1701867995.5,286047000.9,N
1701868015.3,286047000.3,N
1701868035.1,286047002.2,N
1701868055.9,286047002.2,N
1701868075.7,286047002.2,N
1701868095.6,286047002.8,N
1701868115.4,286047000.3,N
1701868135.2,286047002.5,N
1701868155.1,286047001.6,N
1701868156.0,286047001.6,N
1701868175.8,286047001.8,N
1701868195.6,286047004.4,Y
1701868215.5,286046999.8,P
1701868235.3,286047001.2,N
1701868255.2,286047000.2,N
1701868275.9,286047000.0,N
1701868295.7,286047000.3,N
1701868315.6,286047000.3,N
1701868335.4,286047000.6,N
1701868355.2,286046999.8,N
1701868375.1,286047001.5,N
1701868376.0,286047001.5,N
1701868395.8,286047000.6,N
1701868415.7,286047002.1,Y
1701868435.5,286047000.1,P
1701868455.3,286047000.4,N
1701868475.2,286046999.8,N
1701868495.0,286046999.9,N
1701868495.9,286046999.9,N
1701868515.8,286047000.2,N
1701868535.6,286047000.1,N
1701868555.4,286047001.6,Y
1701868575.3,286047001.3,P
1701868595.1,286047001.5,N
1701868615.8,286047004.0,P
1701868635.7,286047002.1,N
1701868655.5,286047002.5,N
1701868675.4,286047002.1,N
1701868695.2,286047004.0,Y
1701868715.0,286046998.1,P
1701868715.9,286046998.1,N
1701868735.8,286047001.0,N
1701868755.6,286046998.4,N
1701868775.4,286046998.7,N
1701868795.3,286046998.5,N
1701868815.1,286047001.2,N
1701868835.9,286047000.6,N
1701868855.7,286047001.2,N
1701868875.5,286047000.9,N
1701868895.4,286046998.6,N
1701868915.2,286046999.4,N
1701868935.0,286046999.3,N
1701868936.0,286046999.3,N
1701868955.8,286046999.2,N
1701868975.6,286046998.0,N
1701868995.5,286046995.3,Y
1701869015.3,286046999.5,P
1701869035.1,286046997.1,P
1701869055.9,286046996.9,N
1701869075.7,286046999.1,N
1701869095.6,286046996.9,N
1701869115.4,286046999.3,N
1701869135.2,286046999.1,N
1701869155.1,286046998.1,N
1701869156.0,286046998.1,N
1701869175.8,286047000.8,N
1701869195.6,286047000.9,N
1701869215.5,286046998.1,N
1701869235.3,286046999.0,N
1701869255.2,286046997.1,N
1701869275.9,286046999.2,N
1701869295.7,286046997.1,N
1701869315.6,286046996.8,N
1701869335.4,286046998.8,N
1701869355.3,286046997.1,N
1701869375.1,286046997.9,N
1701869376.0,286046997.9,N
1701869395.8,286046997.0,N
1701869415.7,286046997.8,N
1701869435.5,286046997.2,N
1701869455.3,286046997.7,N
1701869475.2,286046996.9,N
1701869495.0,286046999.6,N
1701869495.9,286046999.6,N
1701869515.8,286046998.3,N
1701869535.6,286046999.2,N
1701869555.4,286046997.4,N
1701869575.3,286046997.6,N
1701869595.1,286046997.3,N
1701869615.8,286046997.2,N
1701869635.7,286046997.9,N
1701869655.5,286046997.3,N
1701869675.4,286046999.1,N
1701869695.2,286047001.0,N
1701869715.0,286046999.9,N
1701869715.9,286046999.9,N
1701869735.8,286047000.7,N
1701869755.6,286046998.9,N
1701869775.5,286046998.4,N
1701869795.3,286046999.1,N
1701869815.1,286046997.0,N
1701869835.9,286046996.7,N
1701869855.7,286046998.8,N
1701869875.5,286046997.0,N
1701869895.4,286046999.2,N
1701869915.2,286046999.4,N
1701869935.1,286046998.3,N
1701869936.0,286046998.3,N
1701869955.8,286046998.1,N
1701869975.6,286046998.3,N
1701869995.5,286046996.6,Y
1701870015.3,286046998.3,P
1701870035.2,286047000.3,P
1701870055.9,286046998.6,N
1701870075.7,286046999.6,N
1701870095.6,286046999.1,N
1701870115.4,286046998.3,N
1701870135.2,286047000.9,N
1701870155.1,286047000.8,N
1701870156.0,286047000.8,N
1701870175.8,286047000.8,N
1701870195.7,286046999.7,N
1701870215.5,286047000.2,N
1701870235.3,286046999.9,N
1701870255.2,286047000.7,N
1701870275.0,286047000.4,N
1701870275.9,286047000.4,N
1701870295.7,286047000.9,N
1701870315.6,286047000.1,N
1701870335.4,286047002.8,Y
1701870355.3,286047002.8,P
1701870375.1,286047002.1,N
1701870395.8,286047002.0,N
1701870415.7,286047001.5,N
1701870435.5,286047001.3,N
1701870455.4,286047001.3,N
1701870475.2,286047002.6,Y
1701870495.1,286047000.7,P
1701870496.0,286047000.7,N
1701870515.8,286047001.9,P
1701870535.6,286047000.9,N
1701870555.5,286047000.4,N
1701870575.3,286047000.9,N
1701870595.1,286047000.0,N
1701870615.9,286047000.1,N
1701870635.7,286047002.7,Y
1701870655.6,286047000.0,P
1701870675.4,286047000.8,N
1701870695.2,286046998.2,P
1701870715.1,286047000.8,N
1701870716.0,286047000.8,N
1701870735.8,286047001.0,N
1701870755.6,286047000.8,N
1701870775.5,286046998.7,N
1701870795.3,286046998.2,N
1701870815.2,286046999.1,N
1701870835.9,286046998.6,N
1701870855.7,286046998.4,N
1701870875.6,286046999.1,N
1701870895.4,286046999.5,N
1701870915.2,286046998.2,N
1701870935.1,286046998.9,N
1701870936.0,286046998.9,N
1701870955.8,286046999.3,N
1701870975.7,286046999.2,N
1701870995.5,286046998.3,N
1701871015.3,286046998.1,N
1701871035.2,286046998.2,N
1701871055.0,286046999.3,N
1701871055.9,286046999.3,N
1701871075.8,286046998.7,N
1701871095.6,286047001.2,N
1701871115.5,286046998.1,N
1701871135.3,286046999.4,N
1701871155.1,286046999.2,N
1701871175.9,286046997.4,N
1701871195.7,286046997.2,N
